Home   Weather   Stockton   Past weeks

Flag for USA Past Weather in Stockton, California, USA — Yesterday and Last 2 Weeks

Now
66 °F

Sunny.


Feels Like: 66 °F
Forecast: 53 / 63 °F
Wind: 12 mph from Southeast

Location: Stockton Metropolitan Airport

Current Time: Dec 9, 2016 at 1:27:24 pm

Latest Report: Dec 9, 2016 at 12:55 pm


Visibility: 10 mi

Pressure: 30.19 "Hg

Humidity: 73%

Dew Point: 57 °F

Location of StocktonLocation

Past Weather in Stockton — Graph

°F

Stockton Temperature Yesterday

Maximum temperature yesterday: 57 °F (at 2:55 pm)
Minimum temperature yesterday: 46 °F (at 12:55 am)
Average temperature yesterday: 51 °F

High & Low Weather Summary for the Past Weeks

 TemperatureHumidityPressure
High64 °F (Dec 9, 11:55 am)100% (Nov 25, 12:55 am)30.29 "Hg (Nov 25, 12:55 am)
Low31 °F (Dec 7, 6:55 am)31% (Dec 2, 2:55 pm)29.83 "Hg (Nov 26, 6:55 am)
Average48 °F83%30.10 "Hg
* Reported Nov 24 11:55 am — Dec 9 11:55 am, Stockton, Weather by CustomWeather, © 2016

Note: Actual official high and low records may vary slightly from our data, if they occured in-between our weather recording intervals... More about our weather records

Advertising

Stockton Weather History for the Previous 24 Hours

Scroll right to see more
 ConditionsComfort  
Time TempWeatherWind HumidityBarometerVisibility
11:55 am
Fri, Dec 9
64 °FSunny.8 mph78%30.23 "Hg10 mi
10:55 am60 °FPassing clouds.8 mph86%30.25 "Hg9 mi
9:55 am56 °FFog.8 mph100%30.26 "Hg5 mi
8:55 am54 °FFog.8 mph100%30.23 "Hg2 mi
7:55 am54 °FFog.No wind97%30.23 "Hg4 mi
6:55 am53 °FFog.3 mph100%30.22 "Hg6 mi
5:55 am54 °FFog.5 mph97%30.20 "Hg6 mi
4:55 am54 °FMostly cloudy.5 mph97%30.20 "Hg7 mi
3:55 am54 °FFog.No wind97%30.20 "Hg6 mi
2:55 am54 °FPartly cloudy.8 mph100%30.21 "Hg7 mi
1:55 am54 °FFog.7 mph97%30.22 "Hg6 mi
12:55 am54 °FFog.7 mph97%30.21 "Hg6 mi
11:55 pm
Thu, Dec 8
54 °FLight rain. Passing clouds.12 mph97%30.20 "Hg8 mi
10:55 pm54 °FLight rain. Mostly cloudy.12 mph97%30.19 "Hg9 mi
9:55 pm54 °FLight rain. Partly cloudy.13 mph97%30.19 "Hg8 mi
8:55 pm53 °FLight rain. Fog.12 mph96%30.18 "Hg6 mi
7:55 pm53 °FLight rain. Passing clouds.10 mph100%30.17 "Hg7 mi
6:55 pm54 °FLight rain. Overcast.15 mph97%30.17 "Hg8 mi
5:55 pm54 °FLight rain. Passing clouds.14 mph93%30.16 "Hg9 mi
4:55 pm55 °FLight rain. Passing clouds.15 mph87%30.16 "Hg10 mi
3:55 pm55 °FLight rain. More clouds than sun.21 mph83%30.15 "Hg9 mi
2:55 pm57 °FLight rain. Partly sunny.18 mph78%30.15 "Hg10 mi
1:55 pm56 °FLight rain. Overcast.22 mph77%30.15 "Hg9 mi
Weather by CustomWeather, © 2016

See weather overviewHow to use our weather pages